Regional Weather Roundup
Issued by NWS

Home | Current Version | Previous Version | Text Only | Print | Product List | Glossary On
Versions: 1 2 3 4 5 6 7 8 9 10 11 12 13 14 15 16 17 18 19 20 21 22 23 24 25 26 27 28 29 30 31 32 33 34 35 36 37 38 39 40 41 42 43 44 45 46 47 48 49 50
000
ASUS44 KOUN 211210
RWROK

WEATHER ROUNDUP FOR OKLAHOMA
NATIONAL WEATHER SERVICE NORMAN OK
700 AM CDT THU SEP 21 2017

NOTE: "FAIR" INDICATES FEW OR NO CLOUDS BELOW 12,000 FEET WITH NO
      SIGNIFICANT WEATHER AND/OR OBSTRUCTIONS TO VISIBILITY.

OKZ001>007-009>012-014-015-017-211300-
NORTHWEST OKLAHOMA AND THE PANHANDLE

CITY           SKY/WX    TMP DP  RH WIND       PRES   REMARKS
GAGE           CLEAR     70  63  78 S15       29.82R
6HR MIN TEMP:  58; 6HR MAX TEMP:  70;

GUYMON         CLEAR     50  47  89 SW3       29.83S
ENID/WOODRING  CLEAR     77  70  78 S13       29.82R
$$

OKZ016-021>023-033>039-044-045-211300-
SOUTHWEST OKLAHOMA

CITY           SKY/WX    TMP DP  RH WIND       PRES   REMARKS
LAWTON/REGL    CLEAR     76  72  87 SE8       29.87R
6HR MIN TEMP:  75; 6HR MAX TEMP:  79; 6HR PCP:  0.02;

LAWTON/FT SILL CLEAR     75  73  93 S9        29.87R
FREDERICK      CLEAR     77  71  82 S10       29.83R
CLINTON        CLEAR     73  69  87 S17       29.87R
HOBART         CLEAR     75  70  84 S20       29.86R
ALTUS AFB      PTCLDY    73  69  88 E8        29.85R
$$

OKZ018>020-024>031-211300-
CENTRAL OKLAHOMA

CITY           SKY/WX    TMP DP  RH WIND       PRES   REMARKS
OKLAHOMA CITY  MOCLDY    76  70  82 S14       29.87R
6HR MIN TEMP:  76; 6HR MAX TEMP:  79;

OKC/WILEY POST CLOUDY    78  71  79 S20G25    29.86R
OKC/TINKER AFB MOCLDY    77  70  78 S16       29.88R
STILLWATER     PTCLDY    78  69  73 S10       29.86R
GUTHRIE        PTCLDY    79  70  74 S12G20    29.85R
$$

OKZ008-013-054>072-211300-
NORTHEAST OKLAHOMA

CITY           SKY/WX    TMP DP  RH WIND       PRES   REMARKS
TULSA          MOCLDY    78  72  81 S13       29.88R
6HR MIN TEMP:  77; 6HR MAX TEMP:  83;

TULSA/JONES    PTCLDY    77  70  79 S7        29.89R
PONCA CITY     CLOUDY    78  69  73 S14       29.84R
MUSKOGEE       CLEAR     74  71  91 SE9       29.94R
$$

OKZ032-040>043-046>053-073>077-211300-
SOUTH CENTRAL/SOUTHEAST OKLAHOMA

CITY           SKY/WX    TMP DP  RH WIND       PRES   REMARKS
ARDMORE/DWNTWN CLOUDY    77  70  78 SW6       29.92R
MCALESTER      CLEAR     77  73  87 S7        29.94R
$$





USA.gov is the U.S. government's official web portal to all federal, state and local government web resources and services.